TimeMST,TemperatureF,Dew PointF,Humidity,Sea Level PressureIn,VisibilityMPH,Wind Direction,Wind SpeedMPH,Gust SpeedMPH,PrecipitationIn,Events,Conditions,WindDirDegrees,DateUTC
12:54 AM,32.0,26.1,79,30.20,10.0,North,5.8,-,N/A,,Scattered Clouds,350,2012-12-05 07:54:00
1:54 AM,32.0,26.1,79,30.18,10.0,North,4.6,-,N/A,,Clear,360,2012-12-05 08:54:00
2:54 AM,27.0,24.1,89,30.22,10.0,SSW,6.9,-,N/A,,Clear,200,2012-12-05 09:54:00
3:54 AM,30.0,25.0,82,30.18,10.0,SSW,10.4,-,N/A,,Clear,210,2012-12-05 10:54:00
4:54 AM,32.0,26.1,79,30.16,10.0,South,6.9,-,N/A,,Overcast,190,2012-12-05 11:54:00
5:54 AM,36.0,28.0,73,30.13,10.0,SW,5.8,-,N/A,,Scattered Clouds,220,2012-12-05 12:54:00
7:54 AM,33.1,28.0,82,30.12,10.0,SSW,5.8,-,N/A,,Mostly Cloudy,210,2012-12-05 14:54:00
8:54 AM,36.0,28.9,76,30.11,10.0,SW,4.6,-,N/A,,Overcast,230,2012-12-05 15:54:00
9:54 AM,37.0,30.0,76,30.10,10.0,Calm,Calm,-,N/A,,Overcast,0,2012-12-05 16:54:00
10:54 AM,39.0,30.9,73,30.09,10.0,SW,3.5,-,N/A,,Overcast,230,2012-12-05 17:54:00
11:54 AM,39.0,28.9,67,30.06,10.0,WSW,8.1,-,N/A,,Overcast,250,2012-12-05 18:54:00
12:54 PM,39.9,28.9,65,30.05,10.0,SSW,3.5,-,N/A,,Overcast,210,2012-12-05 19:54:00
1:54 PM,41.0,30.0,65,30.04,10.0,SW,9.2,-,N/A,,Overcast,220,2012-12-05 20:54:00
2:54 PM,42.1,33.1,70,30.07,10.0,WSW,16.1,-,0.00,,Overcast,250,2012-12-05 21:54:00
3:12 PM,42.8,33.8,70,30.06,10.0,West,16.1,24.2,0.00,Rain,Light Rain,260,2012-12-05 22:12:00
3:54 PM,41.0,34.0,76,30.05,10.0,WSW,25.3,29.9,0.00,,Mostly Cloudy,250,2012-12-05 22:54:00
4:54 PM,39.9,33.1,77,30.05,10.0,West,23.0,-,N/A,,Overcast,260,2012-12-05 23:54:00
5:54 PM,39.0,33.1,79,30.03,10.0,WSW,27.6,-,N/A,,Overcast,250,2012-12-06 00:54:00
6:54 PM,37.9,32.0,79,30.04,10.0,WSW,20.7,32.2,N/A,,Clear,240,2012-12-06 01:54:00
7:54 PM,37.0,32.0,82,30.09,10.0,South,12.7,19.6,N/A,,Mostly Cloudy,190,2012-12-06 02:54:00
8:13 PM,37.4,32.0,81,30.08,10.0,SW,12.7,-,N/A,,Scattered Clouds,220,2012-12-06 03:13:00
8:54 PM,36.0,32.0,86,30.08,10.0,WSW,21.9,-,N/A,,Clear,250,2012-12-06 03:54:00
9:54 PM,35.1,32.0,89,30.07,10.0,WSW,19.6,-,N/A,,Clear,250,2012-12-06 04:54:00
10:54 PM,35.1,32.0,89,30.06,10.0,WSW,13.8,-,N/A,,Clear,240,2012-12-06 05:54:00
11:54 PM,35.1,32.0,89,30.07,10.0,WSW,18.4,-,N/A,,Partly Cloudy,250,2012-12-06 06:54:00